GW2306 Weather Reports


time (UTC)temp
C
wind
direction
speed
KPH
gust
KPH
rain 1hr
cm
rain 24hr
cm
rain mn
cm
humidity
%
barometer
mb
20260506233056 7 333 3.2 8.0 0.03 1.83 0.05 96 1009.3
20260506231543 7 317 1.6 12.9 0.05 1.83 0.05 96 1009.3
20260506230039 7 314 3.2 9.7 0.05 1.83 0.05 96 1009.3
20260506224546 7 360 3.2 12.9 0.03 2.21 0.03 96 1009.3
20260506223044 7 0 1.6 8.0 0.03 2.21 0.03 96 1009.2
20260506221553 7 342 1.6 6.4 0.00 2.18 0.00 96 1009.2
20260506220044 7 355 1.6 11.3 0.00 2.18 0.00 96 1009.2
20260506214543 7 9 3.2 6.4 0.00 2.74 2.18 95 1009.1
20260506213038 7 355 1.6 6.4 0.00 2.74 2.18 95 1009.0
20260506211538 7 319 3.2 8.0 0.00 2.74 2.18 95 1009.1
20260506210045 7 348 1.6 8.0 0.00 2.74 2.18 95 1008.9
20260506204545 7 327 3.2 8.0 0.00 2.87 2.18 95 1008.9
20260506203043 7 0 3.2 9.7 0.00 2.87 2.18 95 1008.8
20260506201543 7 26 3.2 9.7 0.00 2.87 2.18 95 1008.8
20260506200044 7 281 1.6 9.7 0.00 2.87 2.18 95 1008.7
20260506194545 7 286 3.2 9.7 0.00 2.95 2.18 95 1008.7
20260506193044 7 326 3.2 12.9 0.00 2.95 2.18 95 1008.4
20260506191543 7 333 1.6 6.4 0.00 2.95 2.18 95 1008.2
20260506190044 7 355 1.6 8.0 0.00 2.95 2.18 95 1008.1
20260506184543 7 303 3.2 6.4 0.00 2.95 2.18 95 1008.0
20260506183039 7 309 1.6 9.7 0.00 2.95 2.18 95 1007.9
20260506181545 7 10 1.6 6.4 0.00 2.95 2.18 95 1007.6
20260506180046 8 350 3.2 9.7 0.00 2.95 2.18 95 1007.5
20260506174546 8 0 1.6 8.0 0.00 2.95 2.18 95 1007.5
20260506173049 8 21 1.6 6.4 0.00 2.95 2.18 95 1007.3
20260506171548 8 360 3.2 11.3 0.00 2.95 2.18 95 1007.3
20260506170040 8 317 1.6 6.4 0.00 2.95 2.18 95 1007.2
20260506164554 8 327 1.6 6.4 0.00 2.95 2.18 95 1007.1
20260506163045 8 324 0.0 8.0 0.00 2.95 2.18 96 1007.1
20260506161544 8 338 1.6 8.0 0.00 2.95 2.18 96 1007.0
20260506160049 8 305 3.2 12.9 0.00 2.95 2.18 96 1007.1
20260506154551 8 321 1.6 9.7 0.00 2.95 2.18 95 1007.0
20260506153038 8 9 1.6 4.8 0.00 2.95 2.18 96 1007.1
20260506151545 8 350 1.6 8.0 0.00 2.95 2.18 95 1007.0
20260506150045 8 21 1.6 4.8 0.00 2.95 2.18 95 1007.0
20260506144546 8 0 1.6 6.4 0.00 2.95 2.18 95 1006.9
20260506143042 8 61 1.6 6.4 0.00 2.95 2.18 95 1006.8
20260506141601 8 43 1.6 4.8 0.00 2.95 2.18 95 1006.6
20260506140040 8 22 3.2 6.4 0.03 2.95 2.18 95 1006.6
20260506134537 8 5 1.6 6.4 0.03 2.95 2.18 95 1006.5
20260506133045 8 23 0.0 4.8 0.03 2.95 2.18 95 1006.6
20260506131544 8 25 1.6 8.0 0.03 2.95 2.18 95 1006.6
20260506130045 8 43 0.0 6.4 0.00 2.95 2.16 96 1006.4
20260506124543 8 360 0.0 4.8 0.00 2.95 2.16 95 1006.5
20260506123042 8 67 1.6 9.7 0.00 2.95 2.16 95 1006.3
20260506121538 8 15 3.2 6.4 0.00 2.95 2.16 95 1006.2
20260506120109 8 24 1.6 6.4 0.00 2.95 2.16 95 1006.0
20260506114547 9 46 1.6 8.0 0.00 2.95 2.16 95 1005.9
20260506113040 9 67 1.6 8.0 0.00 2.95 2.16 96 1005.9
20260506111541 8 0 1.6 6.4 0.00 2.95 2.16 96 1005.8
20260506110038 9 21 3.2 6.4 0.00 2.95 2.16 96 1005.8
20260506104547 8 13 0.0 4.8 0.00 2.95 2.16 96 1005.8
20260506103044 8 31 3.2 8.0 0.00 2.95 2.16 96 1005.7
20260506101547 8 25 3.2 8.0 0.00 2.95 2.16 96 1005.7
20260506100041 8 355 0.0 9.7 0.03 2.95 2.16 97 1005.4
20260506094546 8 26 3.2 8.0 0.03 2.95 2.16 96 1005.5
20260506093046 8 13 3.2 8.0 0.03 2.95 2.16 96 1005.3
20260506091537 8 21 1.6 6.4 0.03 2.95 2.16 97 1005.3
20260506090045 8 334 3.2 8.0 0.03 2.92 2.13 96 1005.1
20260506084544 8 22 3.2 8.0 0.05 2.92 2.13 96 1005.1
20260506083045 8 15 1.6 8.0 0.08 2.92 2.13 97 1004.9
20260506081540 8 5 1.6 6.4 0.08 2.92 2.13 96 1004.8
20260506073050 9 0 0.0 11.3 0.08 2.84 2.06 97 1004.6
20260506071550 9 36 3.2 9.7 0.13 2.84 2.06 96 1004.5
20260506070105 9 71 1.6 6.4 0.13 2.82 2.03 97 1004.4
20260506061545 9 40 1.6 4.8 0.13 2.72 1.93 96 1004.4
20260506044556 9 0 1.6 6.4 0.08 2.44 1.65 96 1004.5
20260506043046 9 55 1.6 4.8 0.08 2.41 1.63 96 1004.4
20260506041551 9 57 1.6 6.4 0.05 2.39 1.60 96 1004.3
20260506040044 9 51 1.6 6.4 0.05 2.36 1.57 96 1004.5
20260506034538 9 19 1.6 8.0 0.08 2.39 1.57 96 1004.5
20260506033056 9 48 0.0 4.8 0.10 2.36 1.55 96 1004.6
20260506031556 9 0 1.6 4.8 0.15 2.36 1.55 96 1004.9
20260506030057 10 71 1.6 4.8 0.20 2.34 1.52 96 1005.0
20260506024543 10 34 1.6 6.4 0.23 2.31 1.47 96 1005.1
20260506023040 10 60 3.2 8.0 0.25 2.26 1.45 96 1005.2
20260506021539 10 21 3.2 6.4 0.28 2.21 1.40 96 1005.3
20260506020045 10 0 0.0 4.8 0.28 2.13 1.32 96 1005.4
20260506014544 10 0 1.6 4.8 0.30 2.08 1.27 96 1005.6
20260506013046 10 26 1.6 4.8 0.33 2.01 1.19 96 1005.6
20260506011550 10 10 1.6 8.0 0.30 1.93 1.12 96 1005.7
20260506010040 10 26 1.6 4.8 0.28 1.85 1.04 96 1005.8
20260506004625 10 14 1.6 4.8 0.28 1.80 0.97 96 1005.9
20260506003045 10 17 0.0 4.8 0.25 1.70 0.86 96 1006.0
20260506001545 10 13 0.0 4.8 0.30 1.65 0.81 96 1006.2
20260506000051 10 75 1.6 4.8 0.33 1.57 0.74 96 1006.1
20260505234607 10 27 1.6 4.8 0.36 1.52 0.69 96 1006.4